User: anonymous
Location: Unspecified
(0.0000°N, 0.0000°E)
Time: 10:17:27
(UTC+02:00)
Language:

ARIANE 5 DEB (SYLDA) - Orbit

View from above orbital plane
View from above orbital plane
View from above satellite
View from above satellite

Ground track
Ground track

The orbit data is extracted from the following two-line orbital elements,

1 32770U 08018D   14208.36681748  .02273914 -14061-5  50172-2 0  7973
2 32770 001.4429 322.3702 4018058 264.9722 066.0236 07.60816216 73277
Epoch (UTC): 27 July 2014 08:48:13
Eccentricity: 0.4018058
inclination: 1.4429°
perigee height: 154 km
apogee height: 8929 km
right ascension of ascending node: 322.3702°
argument of perigee: 264.9722°
revolutions per day: 7.60816216
mean anomaly at epoch: 66.0236°
orbit number at epoch: 7327

The dashed part of the orbit path shows where the satellite is in the earth's shadow,  

DLR